Regional Weather Roundup
Issued by NWS

Home | Current Version | Previous Version | Graphics & Text | Print | Product List | Glossary On
Versions: 1 2 3 4 5 6 7 8 9 10 11 12 13 14 15 16 17 18 19 20 21 22 23 24 25 26 27 28 29 30 31 32 33 34 35 36 37 38 39 40 41 42 43 44 45 46 47 48 49 50
000
ASUS43 KLOT 280803
RWRIL

ILLINOIS REGIONAL WEATHER ROUNDUP
NATIONAL WEATHER SERVICE CHICAGO/ROMEOVILLE IL
300 AM CDT WED JUN 28 2017

NOTE: "FAIR" INDICATES FEW OR NO CLOUDS BELOW 12,000 FEET WITH NO
SIGNIFICANT WEATHER AND/OR OBSTRUCTIONS TO VISIBILITY.

* THESE STATIONS ARE NOT UNDER NWS QUALITY CONTROL. THEY ALSO MAY NOT
  REPORT WEATHER SUCH AS PRECIPITATION OR FOG.

ILZ001-002-007-009-015-016-024-280900-
NORTHWEST ILLINOIS

CITY           SKY/WX    TMP DP  RH WIND       PRES   REMARKS
MOLINE         CLOUDY    63  51  65 SE8       29.93R
STERLING*      PTCLDY    61  50  67 VRB6      29.97S
SAVANNA*       CLOUDY    58  51  79 S8        29.94F
$$

ILZ003-004-008-010-011-017-018-280900-
NORTH CENTRAL ILLINOIS

CITY           SKY/WX    TMP DP  RH WIND       PRES   REMARKS
ROCKFORD       MOCLDY    61  47  59 S10       29.97F
FREEPORT*      CLOUDY    59  48  66 S10       29.97F
ROCHELLE*      CLEAR     58  48  71 S10       29.99S
DE KALB*       CLEAR     57  47  70 S9        30.00F
PERU*          CLEAR     60  48  64 S10       30.00R
$$

ILZ005-006-012>014-019>023-280900-
NORTHEAST ILLINOIS

CITY           SKY/WX    TMP DP  RH WIND       PRES   REMARKS
CHICAGO-OHARE  CLEAR     61  47  59 S9        30.00F
CHICAGO-MIDWAY CLEAR     64  48  56 S10       30.00F
AURORA         CLEAR     56  49  77 SE7       30.01F
LANSING*       CLEAR     56  47  71 S7        30.02F
JOLIET*        CLEAR     60  50  69 S5        30.02F
WAUKEGAN       CLEAR     57  48  72 S7        29.99F
DUPAGE AIRPORT CLEAR     55  49  80 S6        30.01F
WHEELING       CLEAR     57  49  74 S7        30.02F
MORRIS*        CLEAR     58  49  74 S8        30.00F
ROMEOVILLE*    CLEAR     58  47  66 S8        30.02F
$$

LMZ740>746-280900-
SOUTHERN LAKE MICHIGAN

STATION/POSITION SKY/WX   TEMP    WIND        PRES    VSBY  WAVE
                          AIR SEA DIR/SP/G                  HT/PER
                          (F)     (DEG/KT/KT) (MB)    (MI)  (FT/S)
SOUTHERN BUOY              64 61  180/ 14/ 16 1017.0          1/ 3
WILMETTE HARBOR            65 63  170/ 12/ 16   N/A           1/ 3
HARRISON CRIB              66     190/ 11/ 12   N/A
BURNHAM HARBOR             64                   N/A
CALUMET HARBOR             63     170/  7/ 10 1016.7F
BURNS HARBOR               63     180/  9/ 15 1017.9F
MICHIGAN CITY              62     160/ 12/ 14   N/A
MICHIGAN CITY 6N           63 66  180/ 12/ 16   N/A           1
ST. JOSEPH                 66 69  200/ 14/ 17 1017.8F         2/ 3
$$

ILZ025>027-034>036-040-047-049-050-058-095>099-280900-
WEST-CENTRAL ILLINOIS

CITY           SKY/WX    TMP DP  RH WIND       PRES   REMARKS
QUINCY         CLOUDY    68  58  70 S10       29.95R
GALESBURG*     CLEAR     61  53  73 S7        29.97R
MACOMB*        CLOUDY    62  54  74 S9        29.97S
JACKSONVILLE*  CLEAR     66  53  64 S10G16    29.98S
PITTSFIELD*    PTCLDY    67  60  77 S8        29.99R
$$

ILZ028>032-037-038-041>044-048-051>054-059>061-280900-
CENTRAL ILLINOIS

CITY           SKY/WX    TMP DP  RH WIND       PRES   REMARKS
PONTIAC        CLEAR     58  52  81 SE6       30.02F
BLOOMINGTON    CLEAR     58  49  72 SE14      30.01F
DECATUR        CLEAR     60  51  72 S8        30.03F
PEORIA         CLEAR     64  51  62 S15       29.98F
LACON*         CLEAR     59  49  69 S6        29.98S
LINCOLN*       CLEAR     60  53  77 S6        30.00F
SPRINGFIELD    CLEAR     66  53  63 S12G20    29.99F
TAYLORVILLE    CLEAR     59  53  79 S7        30.02F
$$

ILZ033-039-045-046-055>057-062-063-280900-
EAST-CENTRAL ILLINOIS

CITY           SKY/WX    TMP DP  RH WIND       PRES   REMARKS
CHAMPAIGN      CLEAR     55  48  77 SE7       30.03F
RANTOUL*       CLEAR     56  50  79 SE6       30.03F
MATTOON        CLEAR     60  52  74 S9        30.04F
PARIS*         CLEAR     53  50  90 SE6       30.08F
$$

ILZ079-100>102-280900-
SOUTHWEST ILLINOIS

CITY           SKY/WX    TMP DP  RH WIND       PRES   REMARKS
ALTON          CLEAR     59  56  88 E8        30.01F
BELLEVILLE     CLEAR     60  55  84 SE3       30.03F
CAHOKIA*       CLEAR     62  54  74 SE5       30.00F
SPARTA*        CLEAR     60  55  85 SE6       30.04F
$$

ILZ064>066-069>071-074>076-080>082-084>086-088>090-092>094-280900-
SOUTH-CENTRAL ILLINOIS

CITY           SKY/WX    TMP DP  RH WIND       PRES   REMARKS
CARBONDALE     CLEAR     59  59 100 CALM      30.05F
CAIRO*         CLEAR     63  59  88 NW3       30.06S
EFFINGHAM*     CLEAR     56  53  89 E6        30.06F
MARION         CLEAR     61  55  82 SE3       30.07S
MT. VERNON     CLEAR     53  52  96 CALM      30.05F
CENTRALIA*     CLEAR     62  53  74 SE5       30.03F
SALEM*         CLEAR     63  51  65 SE5       30.03F
METROPOLIS*    CLEAR     61  58  90 CALM      30.07S
$$

ILZ067-068-072-073-078-083-087-091-280900-
SOUTHEAST ILLINOIS

CITY           SKY/WX    TMP DP  RH WIND       PRES   REMARKS
LAWRENCEVILLE  CLEAR     58  51  78 E3        30.09S
FLORA*         CLEAR     57  52  85 CALM      30.07S
FAIRFIELD*     CLEAR     57  54  91 CALM      30.06S
HARRISBURG*    CLEAR     58  55  92 CALM      30.07S
ROBINSON*      CLEAR     52  50  93 CALM      30.09F
CARMI*         CLEAR     56  55  97 CALM      30.07S
$$

ABBREVIATIONS USED IN REMARKS
   TC - TEMPERATURE IN CELSIUS
  WCI - WIND CHILL INDEX
   HX - HEAT INDEX
  VSB - VISIBILITY
$$





USA.gov is the U.S. government's official web portal to all federal, state and local government web resources and services.